PAY1192 TTCP-MDSI

Flight info

Callsign PAY1192
Flight time 2h 22m
Altitude 21000
Route POS UL337 ARMUR L337 NEGON UL337 TILIG
Aircraft DH8D/M-SDE2E3FGRY/H

Departure

Time 2026-04-20 20:31
Airport A.N.R. Robinson International Airport (TTCP)

Arrival

Time 2026-04-20 22:53
Airport San Isidro Air Base (MDSI)
Time Latitude Longitude Altitude Speed Heading
2026-04-20 19:57 11.15183 -60.84062 48 ft 0 kts 10°
2026-04-20 20:25 11.15177 -60.84063 47 ft 3 kts 10°
2026-04-20 20:25 11.15144 -60.84061 47 ft 2 kts 310°
2026-04-20 20:25 11.15148 -60.84067 47 ft 2 kts 305°
2026-04-20 20:26 11.15165 -60.84105 47 ft 9 kts 277°
2026-04-20 20:26 11.15120 -60.84149 46 ft 9 kts 186°
2026-04-20 20:26 11.15062 -60.84194 46 ft 12 kts 239°
2026-04-20 20:26 11.15038 -60.84286 46 ft 14 kts 257°
2026-04-20 20:27 11.15008 -60.84415 45 ft 17 kts 288°
2026-04-20 20:27 11.15021 -60.84433 45 ft 0 kts 330°
2026-04-20 20:29 11.15054 -60.84418 45 ft 8 kts 81°
2026-04-20 20:30 11.15054 -60.84398 45 ft 0 kts 92°
2026-04-20 20:30 11.15054 -60.84397 45 ft 3 kts 92°
2026-04-20 20:30 11.15052 -60.84362 45 ft 28 kts 94°
2026-04-20 20:30 11.15014 -60.83804 49 ft 121 kts 94°
2026-04-20 20:31 11.14931 -60.82752 159 ft 165 kts 96°
2026-04-20 20:31 11.14820 -60.81502 621 ft 189 kts 95°
2026-04-20 20:31 11.14608 -60.80135 1119 ft 207 kts 111°
2026-04-20 20:31 11.13566 -60.79089 1577 ft 222 kts 156°
2026-04-20 20:32 11.12009 -60.79058 2061 ft 235 kts 197°
2026-04-20 20:32 11.10731 -60.80119 2558 ft 247 kts 237°
2026-04-20 20:32 11.10222 -60.81799 3079 ft 254 kts 258°
2026-04-20 20:32 11.09732 -60.83544 3620 ft 257 kts 246°
2026-04-20 20:33 11.08944 -60.85215 3848 ft 272 kts 239°
2026-04-20 20:33 11.07907 -60.86838 4218 ft 276 kts 232°
2026-04-20 20:33 11.06720 -60.88377 4799 ft 273 kts 229°
2026-04-20 20:33 11.05461 -60.89831 5264 ft 275 kts 226°
2026-04-20 20:34 11.04136 -60.91230 5754 ft 276 kts 223°
2026-04-20 20:34 11.02756 -60.92594 6231 ft 277 kts 221°
2026-04-20 20:34 11.01344 -60.93924 6684 ft 278 kts 220°
2026-04-20 20:34 10.99895 -60.95239 7134 ft 280 kts 219°
2026-04-20 20:35 10.98425 -60.96537 7572 ft 281 kts 219°
2026-04-20 20:35 10.96936 -60.97828 7996 ft 283 kts 219°
2026-04-20 20:35 10.95415 -60.99126 8371 ft 287 kts 218°
2026-04-20 20:35 10.93826 -61.00466 8322 ft 305 kts 218°
2026-04-20 20:36 10.92142 -61.01873 8288 ft 318 kts 218°
2026-04-20 20:36 10.90464 -61.03271 9015 ft 299 kts 218°
2026-04-20 20:36 10.88853 -61.04605 9386 ft 301 kts 218°
2026-04-20 20:36 10.87227 -61.05959 9739 ft 301 kts 219°
2026-04-20 20:37 10.85947 -61.07635 10021 ft 304 kts 246°
2026-04-20 20:37 10.85685 -61.09717 10350 ft 304 kts 277°
2026-04-20 20:37 10.86419 -61.11733 10697 ft 302 kts 297°
2026-04-20 20:37 10.87443 -61.13590 10983 ft 305 kts 300°
2026-04-20 20:38 10.88553 -61.15450 11301 ft 305 kts 302°
2026-04-20 20:38 10.89697 -61.17275 11612 ft 306 kts 302°
2026-04-20 20:38 10.90859 -61.19070 11905 ft 307 kts 303°
2026-04-20 20:38 10.92053 -61.20874 12198 ft 308 kts 303°
2026-04-20 20:39 10.93274 -61.22687 12493 ft 308 kts 304°
2026-04-20 20:39 10.94495 -61.24479 12775 ft 309 kts 304°
2026-04-20 20:39 10.95731 -61.26275 13053 ft 309 kts 304°
2026-04-20 20:39 10.96971 -61.28065 13319 ft 309 kts 304°
2026-04-20 20:40 10.98210 -61.29846 13558 ft 310 kts 304°
2026-04-20 20:40 10.99453 -61.31627 13795 ft 311 kts 304°
2026-04-20 20:40 11.00717 -61.33434 14020 ft 312 kts 304°
2026-04-20 20:40 11.01977 -61.35231 14240 ft 313 kts 304°
2026-04-20 20:41 11.03247 -61.37040 14458 ft 313 kts 304°
2026-04-20 20:41 11.04506 -61.38833 14667 ft 314 kts 304°
2026-04-20 20:41 11.05782 -61.40648 14874 ft 314 kts 304°
2026-04-20 20:41 11.07067 -61.42474 15073 ft 315 kts 304°
2026-04-20 20:42 11.08334 -61.44277 15262 ft 315 kts 304°
2026-04-20 20:42 11.09611 -61.46092 15447 ft 316 kts 304°
2026-04-20 20:42 11.10908 -61.47936 15646 ft 317 kts 304°
2026-04-20 20:42 11.12187 -61.49754 15877 ft 318 kts 304°
2026-04-20 20:43 11.13490 -61.51604 16096 ft 319 kts 304°
2026-04-20 20:43 11.14768 -61.53422 16301 ft 320 kts 304°
2026-04-20 20:43 11.16063 -61.55264 16504 ft 320 kts 304°
2026-04-20 20:43 11.17378 -61.57132 16704 ft 321 kts 304°
2026-04-20 20:44 11.18682 -61.58987 16891 ft 322 kts 304°
2026-04-20 20:44 11.19970 -61.60820 17071 ft 323 kts 304°
2026-04-20 20:44 11.21287 -61.62692 17250 ft 324 kts 304°
2026-04-20 20:44 11.22602 -61.64564 17422 ft 325 kts 304°
2026-04-20 20:45 11.23921 -61.66441 17589 ft 325 kts 304°
2026-04-20 20:45 11.25241 -61.68320 17757 ft 325 kts 304°
2026-04-20 20:45 11.26563 -61.70202 17914 ft 326 kts 304°
2026-04-20 20:45 11.27876 -61.72071 18071 ft 326 kts 304°
2026-04-20 20:46 11.29194 -61.73948 18226 ft 326 kts 304°
2026-04-20 20:46 11.30519 -61.75835 18374 ft 326 kts 304°
2026-04-20 20:46 11.31845 -61.77724 18523 ft 327 kts 304°
2026-04-20 20:46 11.33161 -61.79599 18669 ft 326 kts 304°
2026-04-20 20:47 11.34488 -61.81492 18808 ft 327 kts 304°
2026-04-20 20:47 11.35802 -61.83364 18947 ft 327 kts 304°
2026-04-20 20:47 11.37123 -61.85248 19084 ft 327 kts 304°
2026-04-20 20:47 11.38453 -61.87144 19211 ft 328 kts 303°
2026-04-20 20:48 11.39785 -61.89044 19355 ft 328 kts 303°
2026-04-20 20:48 11.41106 -61.90927 19486 ft 328 kts 303°
2026-04-20 20:48 11.42430 -61.92816 19617 ft 328 kts 303°
2026-04-20 20:48 11.43762 -61.94716 19747 ft 329 kts 303°
2026-04-20 20:49 11.45091 -61.96613 19871 ft 329 kts 303°
2026-04-20 20:49 11.46412 -61.98499 19993 ft 328 kts 303°
2026-04-20 20:49 11.47740 -62.00393 20072 ft 329 kts 303°
2026-04-20 20:49 11.49083 -62.02311 20161 ft 329 kts 303°
2026-04-20 20:50 11.50395 -62.04186 20232 ft 329 kts 303°
2026-04-20 20:50 11.51734 -62.06099 20300 ft 329 kts 303°
2026-04-20 20:50 11.53063 -62.07997 20367 ft 329 kts 304°
2026-04-20 20:50 11.54401 -62.09909 20514 ft 337 kts 304°
2026-04-20 20:51 11.55742 -62.11818 20834 ft 328 kts 304°
2026-04-20 20:51 11.57056 -62.13699 20928 ft 325 kts 303°
2026-04-20 20:51 11.58366 -62.15575 20944 ft 326 kts 304°
2026-04-20 20:51 11.59698 -62.17481 20944 ft 327 kts 304°
2026-04-20 20:52 11.61022 -62.19375 20946 ft 328 kts 304°
2026-04-20 20:52 11.62347 -62.21272 20946 ft 328 kts 303°
2026-04-20 20:52 11.63672 -62.23168 20947 ft 329 kts 304°
2026-04-20 20:52 11.64992 -62.25059 20944 ft 329 kts 303°
2026-04-20 20:53 11.66312 -62.26947 20936 ft 329 kts 303°
2026-04-20 20:53 11.67639 -62.28848 20934 ft 328 kts 303°
2026-04-20 20:53 11.68971 -62.30756 20933 ft 328 kts 303°
2026-04-20 20:53 11.70295 -62.32652 20933 ft 328 kts 303°
2026-04-20 20:54 11.71625 -62.34557 20933 ft 328 kts 303°
2026-04-20 20:54 11.72947 -62.36452 20933 ft 328 kts 303°
2026-04-20 20:54 11.74262 -62.38335 20933 ft 328 kts 303°
2026-04-20 20:54 11.75593 -62.40243 20933 ft 327 kts 303°
2026-04-20 20:55 11.76904 -62.42122 20934 ft 327 kts 303°
2026-04-20 20:55 11.78219 -62.44009 20934 ft 327 kts 304°
2026-04-20 20:55 11.79546 -62.45912 20934 ft 327 kts 304°
2026-04-20 20:55 11.80866 -62.47805 20934 ft 327 kts 304°
2026-04-20 20:56 11.82175 -62.49684 20933 ft 327 kts 304°
2026-04-20 20:56 11.83508 -62.51595 20933 ft 327 kts 304°
2026-04-20 20:56 11.84818 -62.53475 20933 ft 327 kts 304°
2026-04-20 20:56 11.86139 -62.55373 20933 ft 327 kts 304°
2026-04-20 20:57 11.87464 -62.57274 20933 ft 327 kts 304°
2026-04-20 20:57 11.88775 -62.59157 20933 ft 327 kts 304°
2026-04-20 20:57 11.90093 -62.61050 20933 ft 327 kts 304°
2026-04-20 20:57 11.91407 -62.62938 20933 ft 327 kts 304°
2026-04-20 20:58 11.92731 -62.64840 20932 ft 327 kts 304°
2026-04-20 20:58 11.94056 -62.66744 20932 ft 327 kts 303°
2026-04-20 20:58 11.95378 -62.68645 20932 ft 327 kts 303°
2026-04-20 20:58 11.96714 -62.70565 20933 ft 327 kts 303°
2026-04-20 20:59 11.98066 -62.72509 20932 ft 327 kts 303°
2026-04-20 20:59 11.99427 -62.74468 20932 ft 327 kts 303°
2026-04-20 20:59 12.00754 -62.76376 20932 ft 327 kts 303°
2026-04-20 20:59 12.02088 -62.78296 20932 ft 328 kts 303°
2026-04-20 21:00 12.03426 -62.80221 20934 ft 328 kts 304°
2026-04-20 21:00 12.04748 -62.82124 20937 ft 328 kts 304°
2026-04-20 21:00 12.06087 -62.84052 20939 ft 328 kts 304°
2026-04-20 21:00 12.07460 -62.86028 20940 ft 328 kts 304°
2026-04-20 21:01 12.08803 -62.87960 20940 ft 328 kts 304°
2026-04-20 21:01 12.10125 -62.89865 20940 ft 328 kts 304°
2026-04-20 21:01 12.11462 -62.91792 20940 ft 328 kts 304°
2026-04-20 21:01 12.12791 -62.93708 20940 ft 329 kts 304°
2026-04-20 21:02 12.14133 -62.95643 20940 ft 328 kts 304°
2026-04-20 21:02 12.15471 -62.97572 20940 ft 329 kts 304°
2026-04-20 21:02 12.16818 -62.99516 20940 ft 329 kts 304°
2026-04-20 21:02 12.18162 -63.01454 20940 ft 329 kts 304°
2026-04-20 21:03 12.19529 -63.03426 20940 ft 329 kts 304°
2026-04-20 21:03 12.20842 -63.05321 20939 ft 329 kts 304°
2026-04-20 21:03 12.22183 -63.07256 20938 ft 330 kts 304°
2026-04-20 21:03 12.23495 -63.09149 20938 ft 330 kts 304°
2026-04-20 21:04 12.24820 -63.11062 20938 ft 330 kts 304°
2026-04-20 21:04 12.26146 -63.12977 20938 ft 330 kts 304°
2026-04-20 21:04 12.27471 -63.14891 20939 ft 330 kts 304°
2026-04-20 21:04 12.28805 -63.16818 20939 ft 330 kts 304°
2026-04-20 21:05 12.30130 -63.18733 20939 ft 330 kts 304°
2026-04-20 21:05 12.31459 -63.20654 20939 ft 330 kts 305°
2026-04-20 21:05 12.32786 -63.22572 20939 ft 330 kts 305°
2026-04-20 21:05 12.34102 -63.24475 20939 ft 330 kts 305°
2026-04-20 21:06 12.35427 -63.26391 20939 ft 331 kts 305°
2026-04-20 21:06 12.36771 -63.28335 20939 ft 331 kts 305°
2026-04-20 21:06 12.38092 -63.30246 20939 ft 331 kts 305°
2026-04-20 21:06 12.39412 -63.32156 20939 ft 331 kts 305°
2026-04-20 21:07 12.40754 -63.34097 20939 ft 331 kts 305°
2026-04-20 21:07 12.42074 -63.36008 20939 ft 331 kts 305°
2026-04-20 21:07 12.43395 -63.37920 20939 ft 331 kts 305°
2026-04-20 21:07 12.44727 -63.39848 20939 ft 331 kts 305°
2026-04-20 21:08 12.46204 -63.41679 20939 ft 331 kts 313°
2026-04-20 21:08 12.47826 -63.43348 20938 ft 331 kts 314°
2026-04-20 21:08 12.49451 -63.45002 20937 ft 331 kts 314°
2026-04-20 21:08 12.51093 -63.46672 20937 ft 331 kts 314°
2026-04-20 21:09 12.52734 -63.48344 20937 ft 332 kts 314°
2026-04-20 21:09 12.54356 -63.50001 20937 ft 332 kts 314°
2026-04-20 21:09 12.55985 -63.51667 20937 ft 332 kts 314°
2026-04-20 21:09 12.57623 -63.53344 20937 ft 332 kts 314°
2026-04-20 21:10 12.59265 -63.55026 20937 ft 332 kts 314°
2026-04-20 21:10 12.60899 -63.56701 20937 ft 332 kts 314°
2026-04-20 21:10 12.62519 -63.58362 20937 ft 332 kts 314°
2026-04-20 21:10 12.64141 -63.60027 20938 ft 332 kts 314°
2026-04-20 21:11 12.65792 -63.61722 20938 ft 332 kts 314°
2026-04-20 21:11 12.67406 -63.63379 20938 ft 332 kts 314°
2026-04-20 21:11 12.69048 -63.65066 20938 ft 332 kts 314°
2026-04-20 21:11 12.70672 -63.66735 20938 ft 332 kts 314°
2026-04-20 21:12 12.72306 -63.68413 20938 ft 332 kts 314°
2026-04-20 21:12 12.73933 -63.70086 20938 ft 332 kts 314°
2026-04-20 21:12 12.75586 -63.71785 20938 ft 332 kts 314°
2026-04-20 21:12 12.77199 -63.73444 20938 ft 332 kts 314°
2026-04-20 21:13 12.78844 -63.75136 20938 ft 332 kts 314°
2026-04-20 21:13 12.80468 -63.76807 20939 ft 332 kts 314°
2026-04-20 21:13 12.82109 -63.78495 20939 ft 332 kts 314°
2026-04-20 21:13 12.83737 -63.80171 20939 ft 332 kts 314°
2026-04-20 21:14 12.85360 -63.81840 20939 ft 332 kts 314°
2026-04-20 21:14 12.87010 -63.83540 20939 ft 332 kts 314°
2026-04-20 21:14 12.88636 -63.85214 20939 ft 332 kts 314°
2026-04-20 21:14 12.90266 -63.86894 20939 ft 332 kts 314°
2026-04-20 21:15 12.91901 -63.88578 20939 ft 332 kts 314°
2026-04-20 21:15 12.93540 -63.90267 20940 ft 332 kts 314°
2026-04-20 21:15 12.95152 -63.91928 20940 ft 332 kts 314°
2026-04-20 21:15 12.96800 -63.93626 20939 ft 332 kts 314°
2026-04-20 21:16 12.98422 -63.95300 20940 ft 332 kts 314°
2026-04-20 21:16 13.00053 -63.96981 20940 ft 332 kts 314°
2026-04-20 21:16 13.01675 -63.98654 20940 ft 332 kts 314°
2026-04-20 21:16 13.03310 -64.00341 20940 ft 331 kts 314°
2026-04-20 21:17 13.04927 -64.02009 20940 ft 331 kts 314°
2026-04-20 21:17 13.06545 -64.03680 20940 ft 331 kts 314°
2026-04-20 21:17 13.08184 -64.05372 20940 ft 331 kts 314°
2026-04-20 21:17 13.09797 -64.07036 20939 ft 331 kts 314°
2026-04-20 21:18 13.11423 -64.08714 20940 ft 331 kts 314°
2026-04-20 21:18 13.13063 -64.10410 20940 ft 332 kts 315°
2026-04-20 21:18 13.14680 -64.12080 20940 ft 332 kts 315°
2026-04-20 21:18 13.16310 -64.13763 20941 ft 332 kts 315°
2026-04-20 21:19 13.17942 -64.15451 20941 ft 332 kts 315°
2026-04-20 21:19 13.19579 -64.17143 20941 ft 333 kts 315°
2026-04-20 21:19 13.21214 -64.18834 20941 ft 333 kts 315°
2026-04-20 21:20 13.24461 -64.22192 20941 ft 333 kts 315°
2026-04-20 21:20 13.26102 -64.23890 20941 ft 333 kts 315°
2026-04-20 21:20 13.27180 -64.25005 20941 ft 333 kts 315°
2026-04-20 21:20 13.29361 -64.27262 20941 ft 333 kts 315°
2026-04-20 21:21 13.30991 -64.28949 20941 ft 333 kts 315°
2026-04-20 21:21 13.32624 -64.30640 20941 ft 333 kts 315°
2026-04-20 21:21 13.34270 -64.32345 20942 ft 333 kts 315°
2026-04-20 21:21 13.35901 -64.34035 20942 ft 333 kts 315°
2026-04-20 21:22 13.37515 -64.35706 20942 ft 333 kts 315°
2026-04-20 21:22 13.39150 -64.37400 20943 ft 333 kts 315°
2026-04-20 21:22 13.40774 -64.39084 20943 ft 333 kts 315°
2026-04-20 21:22 13.42408 -64.40778 20944 ft 333 kts 315°
2026-04-20 21:23 13.44046 -64.42481 20944 ft 333 kts 315°
2026-04-20 21:23 13.45669 -64.44169 20944 ft 333 kts 315°
2026-04-20 21:23 13.47290 -64.45856 20944 ft 333 kts 315°
2026-04-20 21:23 13.48925 -64.47559 20944 ft 333 kts 315°
2026-04-20 21:24 13.50546 -64.49244 20945 ft 333 kts 315°
2026-04-20 21:24 13.52168 -64.50933 20945 ft 333 kts 315°
2026-04-20 21:24 13.53810 -64.52642 20945 ft 333 kts 315°
2026-04-20 21:24 13.55420 -64.54320 20945 ft 333 kts 315°
2026-04-20 21:25 13.57062 -64.56029 20946 ft 333 kts 315°
2026-04-20 21:25 13.58688 -64.57723 20946 ft 333 kts 315°
2026-04-20 21:25 13.60309 -64.59412 20946 ft 333 kts 315°
2026-04-20 21:25 13.61941 -64.61113 20946 ft 332 kts 315°
2026-04-20 21:26 13.63557 -64.62798 20946 ft 332 kts 315°
2026-04-20 21:26 13.65179 -64.64488 20947 ft 332 kts 315°
2026-04-20 21:26 13.66801 -64.66180 20947 ft 332 kts 315°
2026-04-20 21:26 13.68432 -64.67882 20947 ft 332 kts 315°
2026-04-20 21:27 13.70064 -64.69584 20947 ft 332 kts 315°
2026-04-20 21:27 13.71682 -64.71272 20947 ft 332 kts 315°
2026-04-20 21:27 13.73296 -64.72956 20947 ft 332 kts 315°
2026-04-20 21:27 13.74922 -64.74654 20947 ft 332 kts 315°
2026-04-20 21:28 13.76554 -64.76357 20949 ft 332 kts 315°
2026-04-20 21:28 13.78169 -64.78044 20951 ft 332 kts 315°
2026-04-20 21:28 13.79804 -64.79752 20953 ft 332 kts 315°
2026-04-20 21:28 13.81411 -64.81431 20955 ft 332 kts 315°
2026-04-20 21:29 13.83034 -64.83127 20955 ft 332 kts 315°
2026-04-20 21:29 13.84669 -64.84836 20954 ft 332 kts 315°
2026-04-20 21:29 13.86274 -64.86514 20952 ft 332 kts 315°
2026-04-20 21:29 13.87914 -64.88229 20950 ft 332 kts 315°
2026-04-20 21:30 13.89530 -64.89919 20950 ft 332 kts 315°
2026-04-20 21:30 13.91149 -64.91614 20950 ft 332 kts 315°
2026-04-20 21:30 13.92759 -64.93315 20950 ft 333 kts 314°
2026-04-20 21:30 13.94382 -64.95033 20951 ft 333 kts 314°
2026-04-20 21:31 13.95989 -64.96735 20955 ft 333 kts 314°
2026-04-20 21:31 13.97600 -64.98441 20959 ft 333 kts 314°
2026-04-20 21:31 13.99226 -65.00163 20965 ft 333 kts 314°
2026-04-20 21:31 14.00833 -65.01864 20970 ft 333 kts 314°
2026-04-20 21:32 14.02452 -65.03578 20971 ft 333 kts 314°
2026-04-20 21:32 14.04083 -65.05306 20972 ft 333 kts 314°
2026-04-20 21:32 14.05692 -65.07011 20972 ft 333 kts 314°
2026-04-20 21:32 14.07300 -65.08714 20973 ft 333 kts 314°
2026-04-20 21:33 14.08932 -65.10440 20974 ft 333 kts 315°
2026-04-20 21:33 14.10541 -65.12128 20975 ft 333 kts 315°
2026-04-20 21:33 14.12184 -65.13847 20974 ft 333 kts 315°
2026-04-20 21:33 14.13798 -65.15539 20973 ft 333 kts 315°
2026-04-20 21:34 14.15422 -65.17241 20972 ft 333 kts 315°
2026-04-20 21:34 14.17051 -65.18949 20970 ft 333 kts 315°
2026-04-20 21:34 14.18668 -65.20645 20967 ft 333 kts 315°
2026-04-20 21:34 14.20305 -65.22363 20965 ft 333 kts 315°
2026-04-20 21:35 14.21935 -65.24074 20965 ft 333 kts 315°
2026-04-20 21:35 14.23550 -65.25770 20965 ft 333 kts 315°
2026-04-20 21:35 14.25181 -65.27482 20965 ft 333 kts 315°
2026-04-20 21:35 14.26806 -65.29189 20965 ft 333 kts 315°
2026-04-20 21:36 14.28436 -65.30901 20966 ft 333 kts 315°
2026-04-20 21:36 14.30053 -65.32600 20966 ft 334 kts 315°
2026-04-20 21:36 14.31686 -65.34317 20966 ft 334 kts 315°
2026-04-20 21:36 14.33312 -65.36027 20966 ft 334 kts 315°
2026-04-20 21:37 14.34921 -65.37719 20967 ft 334 kts 315°
2026-04-20 21:37 14.36562 -65.39445 20967 ft 334 kts 315°
2026-04-20 21:37 14.38176 -65.41142 20967 ft 334 kts 315°
2026-04-20 21:37 14.39807 -65.42860 20967 ft 334 kts 315°
2026-04-20 21:38 14.41442 -65.44580 20965 ft 334 kts 315°
2026-04-20 21:38 14.43072 -65.46297 20963 ft 334 kts 315°
2026-04-20 21:38 14.44698 -65.48008 20961 ft 334 kts 315°
2026-04-20 21:38 14.46316 -65.49712 20959 ft 334 kts 315°
2026-04-20 21:39 14.47939 -65.51423 20958 ft 334 kts 315°
2026-04-20 21:39 14.49568 -65.53138 20959 ft 334 kts 315°
2026-04-20 21:39 14.51193 -65.54851 20959 ft 334 kts 315°
2026-04-20 21:39 14.52811 -65.56557 20959 ft 334 kts 315°
2026-04-20 21:40 14.54437 -65.58271 20960 ft 334 kts 315°
2026-04-20 21:40 14.56072 -65.59995 20960 ft 334 kts 315°
2026-04-20 21:40 14.57696 -65.61708 20960 ft 334 kts 315°
2026-04-20 21:40 14.59312 -65.63413 20961 ft 334 kts 315°
2026-04-20 21:41 14.60958 -65.65150 20961 ft 334 kts 315°
2026-04-20 21:41 14.62565 -65.66846 20961 ft 334 kts 315°
2026-04-20 21:41 14.64186 -65.68557 20962 ft 334 kts 315°
2026-04-20 21:41 14.65820 -65.70282 20962 ft 334 kts 315°
2026-04-20 21:42 14.67436 -65.71988 20962 ft 334 kts 315°
2026-04-20 21:42 14.69064 -65.73708 20962 ft 334 kts 315°
2026-04-20 21:42 14.70705 -65.75441 20963 ft 334 kts 315°
2026-04-20 21:42 14.72316 -65.77144 20963 ft 334 kts 315°
2026-04-20 21:43 14.73935 -65.78854 20963 ft 334 kts 315°
2026-04-20 21:43 14.75557 -65.80570 20963 ft 334 kts 315°
2026-04-20 21:43 14.77200 -65.82307 20964 ft 334 kts 315°
2026-04-20 21:43 14.78812 -65.84012 20964 ft 334 kts 315°
2026-04-20 21:44 14.80447 -65.85741 20964 ft 334 kts 315°
2026-04-20 21:44 14.82064 -65.87453 20965 ft 334 kts 314°
2026-04-20 21:44 14.83675 -65.89158 20965 ft 334 kts 314°
2026-04-20 21:44 14.85300 -65.90878 20965 ft 334 kts 314°
2026-04-20 21:45 14.86929 -65.92603 20966 ft 334 kts 314°
2026-04-20 21:45 14.88543 -65.94312 20966 ft 334 kts 314°
2026-04-20 21:45 14.90175 -65.96040 20966 ft 334 kts 314°
2026-04-20 21:45 14.91800 -65.97762 20966 ft 334 kts 314°
2026-04-20 21:46 14.93410 -65.99470 20966 ft 334 kts 314°
2026-04-20 21:46 14.95042 -66.01199 20966 ft 334 kts 314°
2026-04-20 21:46 14.96661 -66.02916 20966 ft 334 kts 314°
2026-04-20 21:46 14.98290 -66.04644 20965 ft 334 kts 314°
2026-04-20 21:47 14.99898 -66.06350 20965 ft 334 kts 314°
2026-04-20 21:47 15.01532 -66.08084 20965 ft 334 kts 314°
2026-04-20 21:47 15.03155 -66.09806 20966 ft 334 kts 314°
2026-04-20 21:47 15.04763 -66.11513 20967 ft 334 kts 314°
2026-04-20 21:48 15.06401 -66.13242 20969 ft 334 kts 315°
2026-04-20 21:48 15.08036 -66.14951 20971 ft 334 kts 315°
2026-04-20 21:48 15.09666 -66.16653 20974 ft 334 kts 315°
2026-04-20 21:48 15.11301 -66.18362 20977 ft 334 kts 315°
2026-04-20 21:49 15.12950 -66.20087 20977 ft 334 kts 315°
2026-04-20 21:49 15.14574 -66.21786 20978 ft 335 kts 315°
2026-04-20 21:49 15.16219 -66.23508 20978 ft 335 kts 315°
2026-04-20 21:49 15.17847 -66.25213 20978 ft 335 kts 315°
2026-04-20 21:50 15.19502 -66.26946 20978 ft 335 kts 315°
2026-04-20 21:50 15.21143 -66.28666 20979 ft 335 kts 315°
2026-04-20 21:50 15.22774 -66.30376 20979 ft 335 kts 315°
2026-04-20 21:50 15.24418 -66.32100 20979 ft 335 kts 315°
2026-04-20 21:51 15.26050 -66.33810 20980 ft 335 kts 315°
2026-04-20 21:51 15.27692 -66.35534 20981 ft 335 kts 315°
2026-04-20 21:51 15.29326 -66.37249 20982 ft 335 kts 315°
2026-04-20 21:51 15.30957 -66.38959 20983 ft 335 kts 315°
2026-04-20 21:52 15.32589 -66.40673 20983 ft 335 kts 315°
2026-04-20 21:52 15.34229 -66.42396 20984 ft 335 kts 315°
2026-04-20 21:52 15.35860 -66.44108 20984 ft 335 kts 315°
2026-04-20 21:52 15.37510 -66.45841 20984 ft 335 kts 315°
2026-04-20 21:53 15.39135 -66.47549 20984 ft 335 kts 315°
2026-04-20 21:53 15.40789 -66.49288 20984 ft 335 kts 315°
2026-04-20 21:53 15.42420 -66.51002 20984 ft 335 kts 315°
2026-04-20 21:53 15.44040 -66.52705 20984 ft 335 kts 315°
2026-04-20 21:54 15.45679 -66.54430 20984 ft 335 kts 315°
2026-04-20 21:54 15.47315 -66.56151 20983 ft 335 kts 315°
2026-04-20 21:54 15.48944 -66.57865 20983 ft 335 kts 315°
2026-04-20 21:54 15.50593 -66.59601 20982 ft 335 kts 315°
2026-04-20 21:55 15.52221 -66.61315 20982 ft 335 kts 315°
2026-04-20 21:55 15.53853 -66.63033 20982 ft 335 kts 315°
2026-04-20 21:55 15.55461 -66.64805 20981 ft 335 kts 311°
2026-04-20 21:55 15.56948 -66.66677 20981 ft 335 kts 309°
2026-04-20 21:56 15.58410 -66.68547 20981 ft 335 kts 309°
2026-04-20 21:56 15.59887 -66.70429 20982 ft 335 kts 309°
2026-04-20 21:56 15.61364 -66.72304 20982 ft 335 kts 309°
2026-04-20 21:56 15.62831 -66.74162 20982 ft 335 kts 309°
2026-04-20 21:57 15.64305 -66.76026 20982 ft 335 kts 309°
2026-04-20 21:57 15.65788 -66.77898 20983 ft 335 kts 309°
2026-04-20 21:57 15.67277 -66.79775 20983 ft 335 kts 309°
2026-04-20 21:57 15.68764 -66.81649 20983 ft 335 kts 309°
2026-04-20 21:58 15.70251 -66.83523 20983 ft 335 kts 310°
2026-04-20 21:58 15.71734 -66.85390 20984 ft 335 kts 310°
2026-04-20 21:58 15.73204 -66.87241 20984 ft 335 kts 310°
2026-04-20 21:58 15.74704 -66.89130 20985 ft 335 kts 310°
2026-04-20 21:59 15.76184 -66.90994 20985 ft 335 kts 310°
2026-04-20 21:59 15.77666 -66.92860 20985 ft 335 kts 310°
2026-04-20 21:59 15.79154 -66.94737 20985 ft 335 kts 310°
2026-04-20 21:59 15.80625 -66.96589 20985 ft 335 kts 310°
2026-04-20 22:00 15.82097 -66.98444 20986 ft 335 kts 310°
2026-04-20 22:00 15.83593 -67.00329 20985 ft 335 kts 310°
2026-04-20 22:00 15.85066 -67.02185 20986 ft 334 kts 310°
2026-04-20 22:00 15.86543 -67.04047 20986 ft 334 kts 310°
2026-04-20 22:01 15.88013 -67.05901 20987 ft 334 kts 310°
2026-04-20 22:01 15.89507 -67.07785 20987 ft 334 kts 310°
2026-04-20 22:01 15.90980 -67.09644 20987 ft 334 kts 310°
2026-04-20 22:01 15.92457 -67.11508 20987 ft 334 kts 310°
2026-04-20 22:02 15.93942 -67.13384 20987 ft 334 kts 310°
2026-04-20 22:02 15.95414 -67.15242 20988 ft 334 kts 310°
2026-04-20 22:02 15.96891 -67.17107 20988 ft 334 kts 310°
2026-04-20 22:02 15.98376 -67.18984 20988 ft 334 kts 310°
2026-04-20 22:03 15.99844 -67.20838 20988 ft 334 kts 310°
2026-04-20 22:03 16.01315 -67.22697 20988 ft 334 kts 310°
2026-04-20 22:03 16.02788 -67.24560 20988 ft 334 kts 310°
2026-04-20 22:03 16.04285 -67.26453 20989 ft 334 kts 310°
2026-04-20 22:04 16.05751 -67.28307 20990 ft 334 kts 310°
2026-04-20 22:04 16.07237 -67.30189 20990 ft 334 kts 310°
2026-04-20 22:04 16.08704 -67.32046 20990 ft 334 kts 310°
2026-04-20 22:04 16.10184 -67.33920 20989 ft 333 kts 310°
2026-04-20 22:05 16.11648 -67.35774 20988 ft 333 kts 310°
2026-04-20 22:05 16.13137 -67.37660 20989 ft 333 kts 310°
2026-04-20 22:05 16.14603 -67.39517 20989 ft 332 kts 310°
2026-04-20 22:05 16.16071 -67.41377 20989 ft 332 kts 310°
2026-04-20 22:06 16.17526 -67.43222 20990 ft 332 kts 310°
2026-04-20 22:06 16.19005 -67.45097 20990 ft 332 kts 310°
2026-04-20 22:06 16.20460 -67.46943 20990 ft 332 kts 310°
2026-04-20 22:06 16.21933 -67.48811 20990 ft 332 kts 310°
2026-04-20 22:07 16.23385 -67.50654 20991 ft 332 kts 310°
2026-04-20 22:07 16.24866 -67.52534 20991 ft 332 kts 310°
2026-04-20 22:07 16.26333 -67.54395 20991 ft 332 kts 310°
2026-04-20 22:07 16.27781 -67.56235 20991 ft 332 kts 310°
2026-04-20 22:08 16.29243 -67.58092 20992 ft 332 kts 310°
2026-04-20 22:08 16.30707 -67.59952 20992 ft 332 kts 310°
2026-04-20 22:08 16.32182 -67.61826 20992 ft 332 kts 310°
2026-04-20 22:08 16.33646 -67.63686 20992 ft 332 kts 310°
2026-04-20 22:09 16.35102 -67.65538 20993 ft 332 kts 310°
2026-04-20 22:09 16.36581 -67.67419 20993 ft 332 kts 310°
2026-04-20 22:09 16.38039 -67.69274 20993 ft 332 kts 310°
2026-04-20 22:09 16.39493 -67.71125 20993 ft 332 kts 310°
2026-04-20 22:10 16.40952 -67.72983 20993 ft 332 kts 310°
2026-04-20 22:10 16.42429 -67.74863 20994 ft 333 kts 310°
2026-04-20 22:10 16.43895 -67.76730 20994 ft 332 kts 310°
2026-04-20 22:10 16.45351 -67.78586 20994 ft 332 kts 310°
2026-04-20 22:11 16.46814 -67.80450 20994 ft 332 kts 310°
2026-04-20 22:11 16.48275 -67.82313 20995 ft 332 kts 310°
2026-04-20 22:11 16.49747 -67.84189 20995 ft 332 kts 310°
2026-04-20 22:11 16.51203 -67.86046 20995 ft 332 kts 310°
2026-04-20 22:12 16.52673 -67.87921 20995 ft 332 kts 310°
2026-04-20 22:12 16.54125 -67.89773 20996 ft 332 kts 310°
2026-04-20 22:12 16.55581 -67.91633 20996 ft 332 kts 310°
2026-04-20 22:12 16.57041 -67.93497 20996 ft 332 kts 310°
2026-04-20 22:13 16.58514 -67.95377 20996 ft 332 kts 310°
2026-04-20 22:13 16.59969 -67.97236 20996 ft 332 kts 310°
2026-04-20 22:13 16.61447 -67.99124 20997 ft 332 kts 310°
2026-04-20 22:13 16.62904 -68.00987 20997 ft 332 kts 310°
2026-04-20 22:14 16.64357 -68.02840 20997 ft 332 kts 310°
2026-04-20 22:14 16.65833 -68.04724 20998 ft 332 kts 310°
2026-04-20 22:14 16.67281 -68.06573 20998 ft 332 kts 310°
2026-04-20 22:14 16.68745 -68.08443 21000 ft 332 kts 310°
2026-04-20 22:15 16.70213 -68.10318 21001 ft 332 kts 310°
2026-04-20 22:15 16.71661 -68.12169 21001 ft 332 kts 310°
2026-04-20 22:15 16.73127 -68.14042 21001 ft 332 kts 310°
2026-04-20 22:15 16.74581 -68.15901 21000 ft 332 kts 310°
2026-04-20 22:16 16.76049 -68.17779 21000 ft 332 kts 310°
2026-04-20 22:16 16.77501 -68.19637 21000 ft 332 kts 310°
2026-04-20 22:16 16.78961 -68.21505 21000 ft 332 kts 310°
2026-04-20 22:16 16.80428 -68.23383 21000 ft 332 kts 310°
2026-04-20 22:17 16.81879 -68.25240 21002 ft 332 kts 310°
2026-04-20 22:17 16.83352 -68.27127 21004 ft 332 kts 310°
2026-04-20 22:17 16.84801 -68.28983 21005 ft 332 kts 310°
2026-04-20 22:17 16.86268 -68.30864 21007 ft 331 kts 310°
2026-04-20 22:18 16.87719 -68.32723 21004 ft 332 kts 310°
2026-04-20 22:18 16.89169 -68.34583 21001 ft 332 kts 310°
2026-04-20 22:18 16.90632 -68.36459 20997 ft 332 kts 310°
2026-04-20 22:18 16.92082 -68.38318 20993 ft 332 kts 310°
2026-04-20 22:19 16.93545 -68.40196 20993 ft 332 kts 310°
2026-04-20 22:19 16.94990 -68.42050 20994 ft 331 kts 310°
2026-04-20 22:19 16.96452 -68.43927 20995 ft 331 kts 310°
2026-04-20 22:19 16.97895 -68.45781 20996 ft 331 kts 310°
2026-04-20 22:20 16.99359 -68.47662 20997 ft 331 kts 310°
2026-04-20 22:20 17.00800 -68.49513 20997 ft 331 kts 310°
2026-04-20 22:20 17.02264 -68.51395 20997 ft 331 kts 309°
2026-04-20 22:20 17.03703 -68.53245 20998 ft 331 kts 310°
2026-04-20 22:21 17.05164 -68.55123 21000 ft 331 kts 310°
2026-04-20 22:21 17.06605 -68.56976 21004 ft 331 kts 310°
2026-04-20 22:21 17.08058 -68.58845 21007 ft 331 kts 310°
2026-04-20 22:21 17.09518 -68.60724 21010 ft 330 kts 310°
2026-04-20 22:22 17.10964 -68.62586 21012 ft 330 kts 310°
2026-04-20 22:22 17.12447 -68.64496 21012 ft 330 kts 310°
2026-04-20 22:22 17.13928 -68.66403 21012 ft 330 kts 309°
2026-04-20 22:22 17.15360 -68.68250 21012 ft 330 kts 309°
2026-04-20 22:23 17.16809 -68.70116 21012 ft 331 kts 309°
2026-04-20 22:23 17.18272 -68.72002 21012 ft 331 kts 309°
2026-04-20 22:23 17.19752 -68.73911 21013 ft 331 kts 309°
2026-04-20 22:23 17.21219 -68.75803 21011 ft 331 kts 309°
2026-04-20 22:24 17.22681 -68.77689 21007 ft 331 kts 309°
2026-04-20 22:24 17.24153 -68.79590 21002 ft 331 kts 309°
2026-04-20 22:24 17.25604 -68.81461 20997 ft 331 kts 309°
2026-04-20 22:24 17.27078 -68.83366 20993 ft 331 kts 309°
2026-04-20 22:25 17.28566 -68.85288 20992 ft 331 kts 309°
2026-04-20 22:25 17.30051 -68.87207 20991 ft 330 kts 309°
2026-04-20 22:25 17.31489 -68.89065 20991 ft 330 kts 309°
2026-04-20 22:25 17.32961 -68.90968 20991 ft 330 kts 309°
2026-04-20 22:26 17.34404 -68.92834 20992 ft 330 kts 309°
2026-04-20 22:26 17.35853 -68.94708 20992 ft 330 kts 309°
2026-04-20 22:26 17.37298 -68.96577 20992 ft 331 kts 309°
2026-04-20 22:27 17.40210 -69.00346 20992 ft 331 kts 309°
2026-04-20 22:27 17.41705 -69.02158 20991 ft 331 kts 313°
2026-04-20 22:27 17.43294 -69.03876 20992 ft 331 kts 314°
2026-04-20 22:27 17.44940 -69.05638 20991 ft 331 kts 314°
2026-04-20 22:28 17.46569 -69.07382 20992 ft 331 kts 314°
2026-04-20 22:28 17.48218 -69.09150 20991 ft 330 kts 314°
2026-04-20 22:28 17.49844 -69.10895 20992 ft 330 kts 314°
2026-04-20 22:28 17.51442 -69.12612 20992 ft 330 kts 314°
2026-04-20 22:29 17.53055 -69.14346 20996 ft 330 kts 314°
2026-04-20 22:29 17.54655 -69.16067 20786 ft 330 kts 314°
2026-04-20 22:29 17.56266 -69.17804 20475 ft 331 kts 314°
2026-04-20 22:29 17.57872 -69.19535 20120 ft 332 kts 314°
2026-04-20 22:30 17.59502 -69.21293 19745 ft 330 kts 314°
2026-04-20 22:30 17.61117 -69.23036 19370 ft 327 kts 314°
2026-04-20 22:30 17.62730 -69.24780 18996 ft 324 kts 314°
2026-04-20 22:30 17.64312 -69.26488 18613 ft 321 kts 314°
2026-04-20 22:31 17.65863 -69.28162 18248 ft 317 kts 314°
2026-04-20 22:31 17.67397 -69.29818 17892 ft 314 kts 314°
2026-04-20 22:31 17.68921 -69.31461 17540 ft 311 kts 314°
2026-04-20 22:31 17.70435 -69.33096 17193 ft 308 kts 314°
2026-04-20 22:32 17.71950 -69.34733 16844 ft 306 kts 314°
2026-04-20 22:32 17.73471 -69.36376 16493 ft 304 kts 314°
2026-04-20 22:32 17.74952 -69.37976 16152 ft 303 kts 314°
2026-04-20 22:32 17.76424 -69.39568 15813 ft 302 kts 314°
2026-04-20 22:33 17.77902 -69.41164 15472 ft 301 kts 314°
2026-04-20 22:33 17.79358 -69.42739 15137 ft 300 kts 314°
2026-04-20 22:33 17.80832 -69.44333 14797 ft 299 kts 314°
2026-04-20 22:33 17.82289 -69.45911 14456 ft 293 kts 314°
2026-04-20 22:34 17.83698 -69.47443 14075 ft 279 kts 314°
2026-04-20 22:34 17.85129 -69.48772 13639 ft 269 kts 328°
2026-04-20 22:34 17.86809 -69.49606 13201 ft 261 kts 337°
2026-04-20 22:34 17.88503 -69.50330 12758 ft 255 kts 338°
2026-04-20 22:35 17.90121 -69.51012 12316 ft 250 kts 338°
2026-04-20 22:35 17.91734 -69.51688 11861 ft 246 kts 338°
2026-04-20 22:35 17.93329 -69.52352 11428 ft 248 kts 338°
2026-04-20 22:35 17.94957 -69.53030 10975 ft 245 kts 338°
2026-04-20 22:36 17.96562 -69.53700 10521 ft 242 kts 338°
2026-04-20 22:36 17.98150 -69.54359 10067 ft 240 kts 338°
2026-04-20 22:36 17.99725 -69.55015 9616 ft 243 kts 338°
2026-04-20 22:36 18.01351 -69.55686 9201 ft 252 kts 339°
2026-04-20 22:37 18.03011 -69.56373 8818 ft 258 kts 339°
2026-04-20 22:37 18.04710 -69.57076 8451 ft 263 kts 339°
2026-04-20 22:37 18.06413 -69.57783 8097 ft 263 kts 339°
2026-04-20 22:37 18.08117 -69.58493 7745 ft 263 kts 339°
2026-04-20 22:38 18.09820 -69.59201 7395 ft 262 kts 340°
2026-04-20 22:38 18.11517 -69.59907 7048 ft 262 kts 340°
2026-04-20 22:38 18.13213 -69.60615 6695 ft 259 kts 340°
2026-04-20 22:38 18.14880 -69.61308 6343 ft 256 kts 340°
2026-04-20 22:39 18.16541 -69.61999 5987 ft 254 kts 340°
2026-04-20 22:39 18.18190 -69.62685 5630 ft 252 kts 340°
2026-04-20 22:39 18.19819 -69.63363 5275 ft 251 kts 340°
2026-04-20 22:39 18.21431 -69.64033 4923 ft 249 kts 340°
2026-04-20 22:40 18.23044 -69.64706 4570 ft 248 kts 340°
2026-04-20 22:40 18.24665 -69.65381 4223 ft 246 kts 340°
2026-04-20 22:40 18.26238 -69.66037 4071 ft 235 kts 340°
2026-04-20 22:40 18.27737 -69.66662 4024 ft 229 kts 340°
2026-04-20 22:41 18.29241 -69.67284 4007 ft 228 kts 340°
2026-04-20 22:41 18.30732 -69.67904 4000 ft 226 kts 340°
2026-04-20 22:41 18.32218 -69.68521 3998 ft 225 kts 340°
2026-04-20 22:41 18.33715 -69.69144 3999 ft 223 kts 340°
2026-04-20 22:42 18.35230 -69.69595 3998 ft 218 kts 353°
2026-04-20 22:42 18.36727 -69.69835 4000 ft 217 kts 354°
2026-04-20 22:42 18.38224 -69.70082 4000 ft 215 kts 354°
2026-04-20 22:42 18.39667 -69.70324 4005 ft 195 kts 353°
2026-04-20 22:43 18.40985 -69.70546 4001 ft 190 kts 354°
2026-04-20 22:43 18.42307 -69.70770 4003 ft 191 kts 354°
2026-04-20 22:43 18.43662 -69.70998 4006 ft 195 kts 354°
2026-04-20 22:43 18.45013 -69.71223 4007 ft 198 kts 354°
2026-04-20 22:44 18.46404 -69.71454 4008 ft 202 kts 354°
2026-04-20 22:44 18.47830 -69.71688 4008 ft 206 kts 354°
2026-04-20 22:44 18.49252 -69.71919 4009 ft 209 kts 354°
2026-04-20 22:44 18.50722 -69.72156 4008 ft 211 kts 354°
2026-04-20 22:45 18.52165 -69.72102 4000 ft 206 kts 19°
2026-04-20 22:45 18.53517 -69.71592 4003 ft 201 kts 23°
2026-04-20 22:45 18.54831 -69.71098 4001 ft 198 kts 22°
2026-04-20 22:45 18.56155 -69.70600 4001 ft 195 kts 23°
2026-04-20 22:46 18.57475 -69.70104 4001 ft 192 kts 23°
2026-04-20 22:46 18.58739 -69.69657 3996 ft 191 kts 16°
2026-04-20 22:46 18.60044 -69.69778 3995 ft 192 kts 339°
2026-04-20 22:46 18.61214 -69.70455 3791 ft 189 kts 332°
2026-04-20 22:47 18.62361 -69.71133 3377 ft 190 kts 333°
2026-04-20 22:47 18.63493 -69.71802 3167 ft 177 kts 333°
2026-04-20 22:47 18.64514 -69.72410 3037 ft 157 kts 333°
2026-04-20 22:47 18.65433 -69.72961 2737 ft 152 kts 333°
2026-04-20 22:48 18.66362 -69.73556 2282 ft 157 kts 320°
2026-04-20 22:48 18.66855 -69.74550 1844 ft 158 kts 271°
2026-04-20 22:48 18.66528 -69.75604 1389 ft 151 kts 221°
2026-04-20 22:48 18.65646 -69.76043 1070 ft 136 kts 181°
2026-04-20 22:49 18.64795 -69.76163 1043 ft 111 kts 184°
2026-04-20 22:49 18.63994 -69.76295 1123 ft 126 kts 185°
2026-04-20 22:49 18.63040 -69.76433 1596 ft 156 kts 184°
2026-04-20 22:49 18.61829 -69.76559 1671 ft 191 kts 180°
2026-04-20 22:50 18.60642 -69.76110 1646 ft 169 kts 134°
2026-04-20 22:50 18.60066 -69.75095 1683 ft 160 kts 118°
2026-04-20 22:50 18.59503 -69.74091 1689 ft 156 kts 124°
2026-04-20 22:50 18.58859 -69.73174 1691 ft 153 kts 132°
2026-04-20 22:51 18.57930 -69.72787 1682 ft 148 kts 183°
2026-04-20 22:51 18.56947 -69.73122 1671 ft 148 kts 199°
2026-04-20 22:51 18.56048 -69.73514 1471 ft 135 kts 197°
2026-04-20 22:51 18.55190 -69.73872 1197 ft 130 kts 197°
2026-04-20 22:52 18.54352 -69.74231 925 ft 132 kts 198°
2026-04-20 22:52 18.53501 -69.74614 727 ft 132 kts 199°
2026-04-20 22:52 18.52662 -69.75008 493 ft 133 kts 201°
2026-04-20 22:52 18.51843 -69.75420 286 ft 125 kts 201°
2026-04-20 22:53 18.51082 -69.75816 134 ft 120 kts 201°
2026-04-20 22:53 18.50438 -69.76134 121 ft 75 kts 206°
2026-04-20 22:53 18.50058 -69.76333 122 ft 48 kts 205°
2026-04-20 22:53 18.49844 -69.76442 124 ft 24 kts 205°
2026-04-20 22:54 18.49717 -69.76506 125 ft 17 kts 206°
2026-04-20 22:54 18.49623 -69.76567 124 ft 15 kts 241°
2026-04-20 22:54 18.49637 -69.76646 123 ft 9 kts 315°
2026-04-20 22:54 18.49699 -69.76695 123 ft 8 kts 325°
2026-04-20 22:55 18.49744 -69.76743 124 ft 13 kts 295°
2026-04-20 22:55 18.49759 -69.76826 126 ft 14 kts 282°
2026-04-20 22:55 18.49789 -69.76836 126 ft 0 kts 79°